Probability
2 2 3 3 2 1 0 0 0 0 0 0 0 0 0 0 0 0 0 0 0 0 0 0 0 0 0 0 0 0 0 0 0 0 0 0 0 0 0 0 0 0 0
1 1 2 3 3 1 1 1 0 0 0 0 0 0 0 0 0 0 0 0 0 0 0 0 0 0 0 0 0 0 0 0 0 0 0 0 0 0 0 0 0 0 0
0 0 1 2 3 2 2 2 1 0 0 0 0 0 0 0 0 0 0 0 0 0 0 0 0 0 0 0 0 0 0 0 0 0 0 0 0 0 0 0 0 0 0
0 0 0 1 3 3 2 2 1 0 0 0 0 0 0 0 0 0 0 0 0 0 0 0 0 0 0 0 0 0 0 0 0 0 0 0 0 0 0 0 0 0 0
0 0 0 1 2 2 1 1 1 0 0 0 0 0 0 0 0 0 0 0 0 0 0 0 0 0 0 0 0 0 0 0 0 0 0 0 0 0 0 0 0 0 0
0 0 0 0 1 1 0 0 0 0 0 0 0 0 0 0 0 0 0 0 0 0 0 0 0 0 0 0 0 0 0 0 0 0 0 0 0 0 0 0 0 0 0
1 0 0 0 0 0 0 0 0 0 0 0 0 0 0 0 0 0 0 0 0 0 0 0 0 0 0 0 0 0 0 0 1 0 0 0 0 0 0 0 0 0 0
2 1 0 0 0 0 0 0 0 0 0 0 0 0 0 0 0 0 0 0 0 0 0 0 0 0 0 0 0 0 0 0 0 0 0 0 0 0 0 0 0 0 0
2 1 1 0 0 0 0 0 0 0 0 0 0 0 0 0 0 0 0 0 0 0 0 0 0 0 0 0 0 0 0 0 0 0 0 0 0 0 0 0 0 0 0
3 3 2 1 0 0 0 0 0 0 0 0 0 0 0 0 0 0 0 0 0 0 0 0 0 0 0 0 0 0 0 0 0 0 0 0 0 0 0 0 0 0 0
3 3 3 2 1 0 0 0 0 0 0 0 0 0 0 0 0 0 0 0 0 0 0 0 0 0 0 0 0 0 0 0 0 0 0 0 0 0 0 0 0 0 0
1 2 3 2 1 0 0 0 0 0 0 0 0 0 0 0 0 0 0 0 0 0 0 0 0 0 0 0 0 0 0 0 0 0 0 0 0 0 0 0 0 0 0
0 1 1 2 2 1 0 0 0 0 0 0 0 0 0 0 0 0 0 0 0 0 0 0 0 0 0 0 0 0 0 0 0 0 0 0 0 0 0 0 0 0 0
0 0 0 2 2 1 0 0 0 0 0 0 0 0 0 0 0 0 0 0 0 0 0 0 0 0 0 0 0 0 0 0 0 0 0 0 0 0 0 0 0 0 0
0 0 1 2 3 2 1 0 0 0 0 0 0 0 0 0 0 0 0 0 0 0 0 0 0 0 0 0 0 0 0 0 0 0 0 0 0 0 0 0 0 0 0
0 1 2 3 3 3 2 1 0 0 0 0 0 0 0 0 0 0 0 0 0 0 0 0 0 0 0 0 0 0 0 0 0 0 0 0 0 0 0 0 0 0 0
0 1 2 3 3 3 3 1 0 0 0 0 0 0 0 0 0 0 0 0 0 0 0 0 0 0 0 0 0 0 0 0 0 0 0 0 0 0 0 0 0 0 0
0 1 2 2 3 3 3 2 1 0 0 0 0 0 0 0 0 0 0 0 0 0 0 0 0 0 0 0 0 0 0 0 0 0 0 0 0 0 0 0 0 0 0
0 0 1 1 1 2 2 2 1 1 0 0 0 0 0 0 0 0 0 0 0 0 0 0 0 0 0 0 0 0 0 0 0 0 0 0 0 0 0 0 0 0 0
0 0 0 0 0 1 1 1 1 1 1 0 0 0 0 0 0 0 0 0 0 0 0 0 0 0 0 0 0 0 0 0 0 0 0 0 0 0 0 0 0 0 0
0 0 0 0 0 0 0 0 0 0 0 0 0 0 0 0 0 0 0 0 0 0 0 0 0 0 0 0 0 0 0 0 0 0 0 0 0 0 0 0 0 0 0
0 0 0 0 0 0 0 0 0 0 0 0 0 0 0 0 0 0 0 0 0 0 0 0 0 0 0 0 0 0 0 0 0 0 0 0 0 0 0 0 0 0 0
0 0 0 0 0 0 0 0 0 0 0 0 0 0 0 0 0 0 0 0 0 0 0 0 0 0 0 0 0 0 0 0 0 0 0 0 0 0 0 0 0 0 0
0 0 0 0 0 0 0 0 0 0 0 0 0 0 0 0 0 0 0 0 0 0 0 0 0 0 0 0 0 0 0 0 0 0 0 0 0 0 0 0 0 0 0
0 0 0 0 0 0 0 0 0 0 0 0 0 0 0 0 0 0 0 0 0 0 0 0 0 0 0 0 0 0 0 0 0 0 0 0 0 0 0 0 0 0 0
0 0 0 0 0 0 0 0 0 0 0 0 0 0 0 0 0 0 0 0 0 0 0 0 0 0 0 0 0 0 0 0 0 0 0 0 0 0 0 0 0 0 0
Wind_Speed
1 1 1 2 2 2 1 1 1 2 2 2 2 2 2 2 2 2 1 4 4 4 4 4 4 4 4 3 3 4 4 4 4 5 5 5 5 6 6 6 6 6 7
1 1 1 1 1 1 1 1 1 1 1 1 2 2 1 1 1 1 1 2 4 4 4 3 3 3 3 3 3 3 3 4 4 4 4 5 5 5 6 6 5 6 6
1 1 1 1 1 1 1 1 2 2 2 2 2 2 1 1 1 1 1 1 2 4 4 4 3 3 3 4 3 3 3 3 4 4 4 4 5 5 5 5 5 5 6
2 1 0 1 1 1 1 1 1 2 1 1 1 1 1 1 1 1 2 2 2 2 3 5 5 4 4 4 4 4 4 4 4 4 4 4 5 5 5 5 6 5 6
1 2 1 0 1 1 1 1 1 1 1 1 0 1 1 1 1 1 2 2 2 2 2 4 6 6 6 5 4 4 4 4 4 4 4 4 5 5 5 5 6 6 6
2 2 1 0 1 1 1 1 1 1 1 0 0 1 1 1 1 1 1 1 2 2 2 2 3 4 7 7 6 5 5 5 5 4 4 4 4 5 5 6 6 6 6
2 2 1 1 1 1 1 1 1 2 1 1 1 1 1 1 1 1 1 1 1 2 2 2 2 2 3 6 7 6 6 6 6 5 5 5 5 5 5 6 6 7 7
1 2 2 1 2 1 2 2 2 2 1 1 2 1 1 1 1 1 1 0 1 1 1 2 2 2 2 2 5 8 8 7 6 6 5 5 5 5 5 6 7 7 7
1 1 1 2 2 2 2 2 3 3 3 1 1 2 2 2 2 1 1 0 1 1 1 2 2 2 2 2 3 6 8 8 7 6 6 6 6 6 6 6 7 7 7
1 1 1 2 2 2 2 2 3 3 4 3 1 0 1 1 1 2 2 1 1 1 1 2 2 2 2 2 3 6 8 8 8 7 7 7 6 6 7 7 7 7 7
1 1 1 2 2 2 2 3 2 3 3 3 3 1 1 0 1 1 3 3 2 1 1 2 2 2 2 2 2 5 7 7 8 8 8 8 8 7 8 7 7 7 7
1 1 1 2 2 2 2 3 3 3 3 3 3 2 2 2 2 2 2 3 4 3 2 1 2 2 2 2 3 6 6 7 8 8 8 8 8 8 8 8 8 8 8
2 2 2 2 2 2 2 3 3 3 4 4 4 3 3 2 2 2 2 2 3 4 2 1 2 2 2 2 2 6 6 8 8 8 9 9 9 8 8 9 8 8 8
2 2 2 3 2 2 2 2 3 3 3 4 4 4 2 2 2 2 2 2 2 3 3 3 1 2 2 2 3 6 4 8 9 9 9 9 9 9 9 9 9 9 9
2 2 2 2 2 2 2 2 3 3 3 4 4 4 3 2 2 2 2 3 3 3 5 3 2 2 2 2 4 3 4 7 9 9 10 10 10 10 9 9 9 9 9
2 2 2 2 2 2 2 2 3 3 3 3 3 4 3 2 2 2 2 2 3 3 5 3 3 3 3 3 5 4 4 8 8 9 10 10 10 10 10 9 9 9 9
2 2 2 2 2 2 2 2 2 3 4 3 3 4 4 3 3 2 2 2 2 3 5 4 3 3 3 4 4 4 4 4 5 9 10 10 10 10 10 10 10 9 9
2 2 2 2 2 2 2 3 3 3 4 4 4 3 4 3 3 3 3 3 3 3 4 6 5 3 4 4 4 4 4 4 4 8 10 10 10 10 10 10 10 9 9
1 1 1 1 2 2 2 3 3 3 3 4 4 4 4 4 4 3 3 3 3 3 3 5 5 3 3 3 4 4 4 4 4 6 8 9 9 10 10 10 10 10 9
1 1 1 2 2 2 3 3 3 3 3 3 3 3 4 4 4 4 4 4 3 3 3 4 5 4 3 3 3 3 4 3 4 4 6 6 8 9 10 10 10 10 10
1 1 1 1 2 2 2 3 3 3 3 3 3 3 3 4 5 4 4 4 3 3 3 4 4 4 4 3 3 3 5 5 5 3 3 3 4 4 5 7 8 9 9
1 1 1 2 2 2 4 4 3 2 3 3 3 3 3 3 4 6 7 6 6 5 5 4 5 6 6 4 4 3 4 5 4 2 2 4 2 4 4 4 8 9 9
2 2 2 2 2 4 5 4 4 3 3 3 3 3 2 2 3 3 5 6 6 7 8 7 7 7 6 5 5 5 5 5 6 4 3 5 2 4 4 5 9 9 9
2 2 2 3 3 3 5 5 4 3 2 3 3 3 3 3 3 4 4 5 5 5 6 5 6 7 6 5 6 6 5 5 5 4 3 4 3 3 4 4 7 8 8
2 2 2 2 2 4 5 5 4 2 2 3 3 3 4 4 6 6 5 5 6 5 6 8 9 9 10 9 7 3 3 3 4 3 1 2 2 3 4 3 4 7 8
2 2 3 2 3 3 5 6 5 2 2 2 2 3 5 6 7 6 5 5 6 5 4 4 5 6 5 5 6 5 4 4 3 3 1 1 1 2 4 3 3 3 4
Wind_Direction
75 59 50 46 46 43 57 64 57 64 70 67 73 85 74 53 39 34 14 15 19 34 55 57 54 51 47 44 38 32 30 30 27 28 25 22 18 15 14 9 8 10 7
85 74 77 57 43 45 41 62 70 72 65 70 56 53 61 53 43 29 23 11 19 27 38 46 45 41 35 33 24 22 22 24 20 19 19 16 11 7 7 5 4 2 2
120 96 105 102 47 40 57 60 60 70 64 58 48 35 37 36 40 22 15 14 8 14 23 28 30 29 25 20 12 19 14 10 7 8 9 12 7 1 1 4 359 356 355
127 127 105 127 109 82 62 82 88 89 75 59 43 18 19 28 34 24 25 20 18 8 9 14 8 7 6 2 357 0 1 354 352 355 357 2 359 353 353 358 357 353 349
140 146 128 158 128 112 83 77 96 110 111 70 35 21 7 13 16 35 33 27 21 15 7 2 4 359 353 346 341 343 343 337 335 343 348 352 351 344 342 348 349 343 341
158 147 125 157 126 118 108 84 112 100 120 98 56 23 353 351 35 36 17 18 16 14 11 8 360 351 351 344 337 330 328 328 325 329 332 333 336 334 331 331 335 335 333
156 147 131 152 141 147 159 136 133 128 99 86 82 26 359 37 68 43 31 30 10 355 3 359 352 346 338 341 335 326 318 320 318 315 319 318 318 319 321 321 322 324 324
150 162 148 161 167 157 150 140 143 154 130 101 116 130 353 342 3 14 4 2 334 341 349 348 345 340 333 329 329 331 328 318 314 307 310 311 310 309 312 314 315 318 316
167 158 167 165 175 169 177 173 172 163 168 151 118 139 154 235 306 305 283 317 338 338 319 326 330 324 326 327 319 328 332 322 315 311 307 304 304 303 305 309 312 314 315
194 193 179 175 185 186 183 185 177 174 167 174 161 96 155 154 173 295 289 283 289 289 288 302 308 306 311 310 319 325 330 329 322 315 310 304 298 299 300 303 306 308 309
216 205 196 195 191 198 195 185 174 178 176 180 171 156 142 111 159 204 271 289 296 267 266 278 282 290 307 315 315 321 326 326 323 319 313 308 302 297 297 298 299 300 302
253 239 209 205 210 200 208 195 183 181 183 182 178 171 171 177 189 197 240 268 284 288 282 275 273 277 286 299 314 323 327 325 321 318 314 311 308 302 297 295 295 297 300
249 252 235 223 226 221 216 200 182 183 188 189 191 197 201 208 197 198 209 255 284 295 294 272 262 270 287 298 303 319 319 322 320 319 315 312 308 305 299 295 293 294 296
240 237 228 229 225 225 219 206 195 192 193 198 204 202 206 213 199 203 201 212 273 291 287 274 282 263 277 293 302 312 307 315 315 316 314 311 305 301 301 295 291 292 294
246 224 220 225 228 224 217 208 213 202 197 203 209 209 213 217 210 216 209 200 208 262 276 276 275 272 290 291 299 296 295 303 309 312 312 310 306 301 297 296 289 288 289
245 231 228 227 232 231 223 214 223 204 199 211 213 211 215 214 213 220 218 223 222 225 258 264 265 280 289 296 299 294 290 302 303 306 307 306 306 306 301 298 294 288 286
247 239 235 229 233 237 229 218 227 207 204 217 221 217 221 213 214 218 221 224 233 230 249 275 276 282 279 284 296 292 286 282 287 297 299 301 303 303 302 299 295 292 289
254 247 243 233 233 237 233 224 231 218 208 216 220 220 229 220 217 217 222 231 234 235 238 266 281 283 280 276 284 291 296 294 284 290 294 298 299 299 299 300 297 294 292
256 248 233 241 246 246 243 238 234 229 223 225 223 219 226 221 226 225 226 234 242 247 243 254 275 283 283 277 287 292 288 288 289 287 289 292 294 294 292 293 297 296 293
255 251 247 248 252 258 254 239 238 229 232 236 235 230 224 224 230 226 231 236 241 245 247 251 266 275 278 277 276 289 299 296 295 296 289 292 293 292 290 291 295 296 293
295 279 266 263 257 254 249 235 238 228 223 237 240 237 236 237 245 245 239 233 236 245 246 253 262 276 278 277 276 282 290 299 295 283 289 287 284 280 283 286 289 293 293
324 319 278 262 259 262 268 264 256 237 231 235 246 249 244 237 249 261 257 249 241 239 245 250 258 258 268 270 277 276 288 298 297 288 304 293 274 275 281 277 285 292 294
330 311 304 285 273 269 271 272 266 248 235 240 241 248 259 255 241 248 260 262 258 256 251 246 250 253 258 257 262 266 262 268 274 274 289 283 273 276 286 283 286 288 293
323 313 311 299 288 286 280 275 276 244 235 240 244 246 252 256 251 261 258 257 259 258 261 255 249 254 256 256 248 254 262 274 282 270 246 268 278 280 292 283 280 288 293
321 315 314 313 304 300 297 290 286 241 245 254 256 254 252 251 259 267 258 257 265 269 275 272 270 269 270 272 271 262 259 267 283 277 220 247 279 299 290 275 280 291 293
314 320 320 317 304 301 305 296 291 256 255 262 263 262 262 264 264 268 255 253 259 269 276 287 285 284 276 270 268 242 233 242 265 273 235 236 262 313 301 279 285 294 291